World > North America > United States > New York

Speculator, New York Regional Weather

Lat: 43.58N, Lon: 74.38W
Wx Zone: NYZ033Web Search
Speculator Weather Warning NWS WEATHER ALERT FOR THE SPECULATOR, NY AREA - Issued: 358 PM EST Wed Feb 24 2021 Speculator Weather Warning  

Helpful Tip: Type the letters wx in the search engine next time you need to find us.

Feedback
Speculator Weather Map
UTC Time: 2/25/2021, 02:58
Your Time:

Speculator, NY Regional Weather

Expires:202102250300;;073169
ASUS41 KALY 250210
RWRALY

NEW YORK STATE HOURLY WEATHER ROUNDUP
NATIONAL WEATHER SERVICE ALBANY NY
900 PM EST WED FEB 24 2021

NOTE: "FAIR" INDICATES FEW OR NO CLOUDS BELOW 12,000 FEET WITH NO
SIGNIFICANT WEATHER AND/OR NO OBSTRUCTIONS TO VISIBILITY.


NYZ026>034-041>043-087-250300-
NORTH

  
CITY           SKY/WX    TMP DP  RH WIND       PRES   REMARKS
WATERTOWN      CLOUDY    41  33  73 W23G36    29.60R                  
FORT DRUM      NOT AVBL                                               
OGDENSBURG     CLOUDY    41  34  75 W10       29.51R                  
MASSENA        CLOUDY    35  32  88 W3        29.51R                  
SARANAC LAKE   LGT RAIN  37  34  89 SW10G24   29.48R WCI  30          
PLATTSBURGH    LGT RAIN  35  31  85 S3        29.49F                  
$$


SKY/WX - Weather  TMP - Temperature  DP - Dew Point  RH - Relative Humidity
WIND - Wind Direction/Speed PRES - Barometric Pressure VSB - Visibility
WCI - Wind Chill Index E13G22 Wind - East Wind 13 mph/Gusts of 22 mph